Flag for Netherlands Weather past 2 weeks in Groningen, Netherlands

Now
55 °F

Clear.


Feels Like: 54 °F
Forecast: 51 / 59 °F
Wind: 7 mph from South

Location: Groningen Eelde Airport

Current Time: Sep 23, 2014 at 11:18:55 PM

Latest Report: Sep 23, 2014 at 10:55 PM


Visibility: 4 mi

Pressure: 30.01 "Hg

Humidity: 82%

Dew point: 50 °F

Location of GroningenLocation

Historic Weather in Groningen — Graph

°F

Groningen temperature yesterday

Maximum temperature yesterday: 63 °F (at 1:25 PM)
Minimum temperature yesterday: 43 °F (at 11:55 PM)
Average temperature yesterday: 56 °F

Past Weeks' High & Low Weather Summary

 TemperatureHumidityPressure
High77 °F (Sep 17, 3:55 PM)100% (Sep 8, 11:25 PM)30.27 "Hg (Sep 8, 11:25 PM)
Low43 °F (Sep 22, 11:55 PM)47% (Sep 17, 4:25 PM)29.83 "Hg (Sep 18, 3:25 PM)
Average61 °F83%30.05 "Hg
* Reported Sep 8 9:25 PM — Sep 23 9:55 PM, Groningen, Weather by CustomWeather, © 2014

Note: Actual official high and low records may vary slightly from our data, if they occured in-between our weather recording intervals... More about our weather records

Advertising

Groningen weather history for previous 24 hours

 ConditionsComfort  
Time TempWeatherWind HumidityBarometerVisibility
9:55 PM
Sep 23
57 °FPartly cloudy.6 mph82%30.01 "Hg5 mi
9:25 PM57 °FPassing clouds.7 mph82%30.01 "Hg6 mi
8:55 PM57 °FPassing clouds.6 mph82%30.04 "HgN/A
8:25 PM57 °FPassing clouds.3 mph82%30.04 "HgN/A
7:55 PM57 °FScattered clouds.2 mph82%30.04 "HgN/A
7:25 PM59 °FClear.3 mph77%30.04 "HgN/A
6:55 PM59 °FClear.3 mph77%30.04 "HgN/A
6:25 PM61 °FClear.6 mph68%30.04 "HgN/A
5:55 PM61 °FPassing clouds.7 mph68%30.04 "HgN/A
5:25 PM61 °FClear.8 mph68%30.07 "HgN/A
4:55 PM61 °FPassing clouds.9 mph68%30.07 "HgN/A
4:25 PM63 °FClear.12 mph64%30.07 "HgN/A
3:55 PM63 °FClear.12 mph59%30.07 "HgN/A
3:25 PM63 °FClear.12 mph59%30.07 "HgN/A
2:55 PM63 °FClear.8 mph59%30.09 "HgN/A
2:25 PM61 °FOvercast.8 mph63%30.09 "HgN/A
1:55 PM61 °FPartly sunny.9 mph63%30.09 "HgN/A
1:25 PM61 °FOvercast.9 mph63%30.09 "HgN/A
12:55 PM61 °FOvercast.12 mph59%30.12 "HgN/A
12:25 PM63 °FPartly sunny.9 mph59%30.12 "HgN/A
11:55 AM61 °FCool.10 mph63%30.12 "HgN/A
11:25 AM59 °FPartly sunny.9 mph68%30.12 "HgN/A
10:55 AM61 °FOvercast.9 mph63%30.12 "HgN/A
10:25 AM59 °FPassing clouds.6 mph68%30.12 "HgN/A
9:55 AM55 °FClear.6 mph77%30.12 "HgN/A
9:25 AM54 °FClear.5 mph82%30.12 "HgN/A
8:55 AM50 °FClear.3 mph94%30.12 "HgN/A
8:25 AM45 °FQuite cool.5 mph93%30.12 "HgN/A
7:55 AM43 °FQuite cool.5 mph93%30.12 "HgN/A
7:25 AM45 °FPassing clouds.3 mph93%30.12 "HgN/A
6:55 AM46 °FMostly cloudy.5 mph93%30.12 "HgN/A
6:25 AM50 °FPartly cloudy.5 mph88%30.12 "HgN/A
5:55 AM48 °FPartly cloudy.6 mph94%30.12 "HgN/A
5:25 AM46 °FPassing clouds.6 mph93%30.12 "HgN/A
4:55 AM45 °FPassing clouds.2 mph93%30.12 "HgN/A
4:25 AM45 °FPassing clouds.3 mph93%30.12 "HgN/A
3:55 AM46 °FOvercast.3 mph87%30.12 "HgN/A
3:25 AM46 °FPassing clouds.3 mph93%30.12 "HgN/A
2:55 AM48 °FPassing clouds.5 mph87%30.12 "HgN/A
2:25 AM50 °FMostly cloudy.5 mph88%30.15 "HgN/A
1:55 AM50 °FMostly cloudy.3 mph88%30.12 "HgN/A
1:25 AM48 °FPassing clouds.3 mph94%30.15 "HgN/A
12:55 AM48 °FMostly cloudy.3 mph94%30.15 "HgN/A
12:25 AM46 °FOvercast.2 mph93%30.15 "HgN/A
11:55 PM
Sep 22
43 °FPassing clouds.3 mph100%30.15 "HgN/A
11:25 PM45 °FQuite cool.3 mph87%30.15 "HgN/A
Weather by CustomWeather, © 2014

See weather overviewHow to use our weather pages